Tracking 29892 objects as of 21-Nov-2024
HD Live streaming from Space Station
objects crossing your sky now

COSMOS 1932 DEB

Track COSMOS 1932 DEB now!
10-day predictions


NORAD ID: 38845
Int'l Code: 1988-019G
Perigee: 945.3 km
Apogee: 990.0 km
Inclination: 65.0 °
Period: 104.3 minutes
Semi major axis: 7338 km
RCS: 0.003 m2 (small)
Launch date: March 14, 1988
Source: Commonwealth of Independent States (former USSR) (CIS)
Launch site: TYURATAM MISSILE AND SPACE COMPLEX (TTMTR)

Note: This is SATELLITE DEBRIS
Your satellite tracking list
Your tracking list is empty




NASA's NSSDC Master Catalog

Two Line Element Set (TLE):
1 38845U 88019G   24323.84711613  .00000180  00000-0  25233-3 0  9996
2 38845  65.0420 158.5091 0030457  55.4559 317.0942 13.80957066534113
Source of the keplerian elements: AFSPC